Weather History for LGPZ - October, 2012

Change the Weather History Date:

Friday, October 26, 2012

  Actual Average Record
Temperature  
Mean Temperature 66 °F -  
Max Temperature 73 °F 64 °F 75 °F (2004)
Min Temperature 58 °F 52 °F 53 °F (2003)
Growing Degree Days 16 (Base 50)    
Moisture  
Dew Point 57 °F    
Average Humidity 75    
Maximum Humidity 88    
Minimum Humidity 53    
Precipitation  
Precipitation 0.00 in - - ()
Sea Level Pressure  
Sea Level Pressure 29.89 in    
Wind  
Wind Speed 5 mph ()    
Max Wind Speed 9 mph    
Max Gust Speed -    
Visibility 6.2 miles    
Events      
Averages and records for this station are not official NWS values.
T = Trace of Precipitation, MM = Missing Value Source: Averaged Metar Reports

Daily Weather History Graph

Daily Weather History Graph

Search for Another Location

Airport or City:

Trip Planner

Search our weather history database for the weather conditions in past years. The results will help you decide how hot, cold, wet, or windy it might be!

Date:

Astronomy

Oct. 26, 2012 Rise Set
Actual Time 7:57 AM EEST 6:43 PM EEST
Civil Twilight 7:30 AM EEST 7:10 PM EEST
Nautical Twilight 6:59 AM EEST 7:41 PM EEST
Astronomical Twilight 6:28 AM EEST 8:12 PM EEST
Moon 4:48 PM EEST (10/26) 4:37 AM EEST (10/26)
Length of Visible Light 11h 39m
Length of Day
10h 45m
Waxing Gibbous, 89% of the Moon is Illuminated
Oct 26
Waxing Gibbous
Oct 29
Full
Nov 7
Last Quarter
Nov 14
New
Nov 20
First Quarter

Hourly Weather History & Observations

Time (EEST) Temp. Dew Point Humidity Pressure Visibility Wind Dir Wind Speed Gust Speed Precip Events Conditions
12:50 AM 62.6 °F 57.2 °F 82% 29.92 in - ENE 6.9 mph - N/A   Clear
1:50 AM 60.8 °F 55.4 °F 82% 29.92 in - ENE 5.8 mph - N/A   Clear
2:50 AM 60.8 °F 55.4 °F 82% 29.92 in - ENE 5.8 mph - N/A   Clear
3:00 AM 61 °F 55 °F 75% 29.92 in 6 mi ENE 5.8 mph - -  
3:50 AM 60.8 °F 53.6 °F 77% 29.92 in - ENE 6.9 mph - N/A   Clear
4:50 AM 60.8 °F 51.8 °F 72% 29.92 in - ENE 6.9 mph - N/A   Clear
5:50 AM 59.0 °F 53.6 °F 82% 29.92 in - ENE 5.8 mph - N/A   Clear
6:20 AM 59.0 °F 53.6 °F 82% 29.92 in - ENE 5.8 mph - N/A   Clear
6:50 AM 59.0 °F 55.4 °F 88% 29.89 in - East 5.8 mph - N/A   Clear
7:20 AM 60.8 °F 55.4 °F 82% 29.89 in - ENE 5.8 mph - N/A   Clear
7:50 AM 59.0 °F 55.4 °F 88% 29.89 in 6.2 mi ENE 5.8 mph - N/A   Partly Cloudy
8:20 AM 60.8 °F 55.4 °F 82% 29.92 in 6.2 mi ENE 4.6 mph - N/A   Partly Cloudy
8:50 AM 60.8 °F 55.4 °F 82% 29.92 in 6.2 mi ENE 6.9 mph - N/A   Partly Cloudy
9:00 AM 61 °F 55 °F 76% 29.93 in 6 mi ENE 6.9 mph - -   Scattered Clouds
9:20 AM 62.6 °F 55.4 °F 77% 29.92 in 6.2 mi ENE 6.9 mph - N/A   Partly Cloudy
9:50 AM 64.4 °F 55.4 °F 73% 29.92 in 6.2 mi ENE 8.1 mph - N/A   Partly Cloudy
10:20 AM 64.4 °F 55.4 °F 73% 29.92 in 6.2 mi ENE 9.2 mph - N/A   Partly Cloudy
10:50 AM 66.2 °F 55.4 °F 68% 29.92 in 6.2 mi ENE 9.2 mph - N/A   Partly Cloudy
11:20 AM 66.2 °F 57.2 °F 73% 29.92 in 6.2 mi ENE 5.8 mph - N/A   Partly Cloudy
11:50 AM 68.0 °F 57.2 °F 68% 29.92 in 6.2 mi NE 4.6 mph - N/A   Partly Cloudy
12:20 PM 69.8 °F 57.2 °F 64% 29.92 in 6.2 mi East 4.6 mph - N/A   Partly Cloudy
12:50 PM 69.8 °F 57.2 °F 64% 29.92 in 6.2 mi Calm Calm - N/A   Partly Cloudy
1:20 PM 71.6 °F 59.0 °F 64% 29.89 in 6.2 mi Calm Calm - N/A   Partly Cloudy
1:50 PM 73.4 °F 59.0 °F 61% 29.89 in 6.2 mi Calm Calm - N/A   Partly Cloudy
2:50 PM 73.4 °F 59.0 °F 61% 29.89 in 6.2 mi WNW 4.6 mph - N/A   Partly Cloudy
3:00 PM 73 °F 59 °F 53% 29.89 in 6 mi WNW 4.6 mph - -   Scattered Clouds
3:20 PM 73.4 °F 59.0 °F 61% 29.89 in 6.2 mi WNW 5.8 mph - N/A   Partly Cloudy
3:50 PM 73.4 °F 60.8 °F 65% 29.86 in 6.2 mi WNW 6.9 mph - N/A   Partly Cloudy
4:20 PM 73.4 °F 60.8 °F 65% 29.86 in 6.2 mi WNW 6.9 mph - N/A   Partly Cloudy
4:50 PM 71.6 °F 60.8 °F 69% 29.86 in 6.2 mi West 8.1 mph - N/A   Partly Cloudy
5:20 PM 71.6 °F 60.8 °F 69% 29.86 in 6.2 mi West 8.1 mph - N/A   Partly Cloudy
5:50 PM 69.8 °F 60.8 °F 73% 29.86 in 6.2 mi West 5.8 mph - N/A   Partly Cloudy
6:20 PM 69.8 °F 60.8 °F 73% 29.86 in 6.2 mi West 5.8 mph - N/A   Partly Cloudy
6:50 PM 66.2 °F 59.0 °F 78% 29.86 in 6.2 mi West 4.6 mph - N/A   Partly Cloudy
7:20 PM 66.2 °F 59.0 °F 78% 29.86 in 6.2 mi West 4.6 mph - N/A   Partly Cloudy
7:50 PM 66.2 °F 59.0 °F 78% 29.86 in 6.2 mi Calm Calm - N/A   Scattered Clouds
8:20 PM 64.4 °F 57.2 °F 77% 29.86 in 6.2 mi Calm Calm - N/A   Partly Cloudy
8:50 PM 62.6 °F 59.0 °F 88% 29.86 in 6.2 mi Calm Calm - N/A   Partly Cloudy
9:00 PM 63 °F 58 °F 80% 29.88 in 6 mi Calm Calm - -   Scattered Clouds
9:50 PM 62.6 °F 59.0 °F 88% 29.86 in 6.2 mi Calm Calm - N/A   Partly Cloudy
10:50 PM 62.6 °F 59.0 °F 88% 29.89 in 6.2 mi Calm Calm - N/A   Partly Cloudy
11:50 PM 60.8 °F 57.2 °F 88% 29.86 in 6.2 mi Calm Calm - N/A   Partly Cloudy